Time,TemperatureF,DewpointF,PressureIn,WindDirection,WindDirectionDegrees,WindSpeedMPH,WindSpeedGustMPH,Humidity,HourlyPrecipIn,Conditions,Clouds,dailyrainin,SoftwareType,DateUTC
2013-07-07 00:00:00,85.1,55.9,29.92,SE,132,0.0,4.5,37,0.00,,---,0.00,VWS V14.00,2013-07-07 05:00:00,
2013-07-07 00:10:00,84.7,56.3,29.92,SSW,209,2.7,5.4,38,0.00,,---,0.00,VWS V14.00,2013-07-07 05:10:00,
2013-07-07 00:20:00,84.6,56.9,29.92,SSW,202,0.0,4.9,39,0.00,,---,0.00,VWS V14.00,2013-07-07 05:20:00,
2013-07-07 00:30:00,84.4,56.7,29.92,South,183,0.0,3.6,39,0.00,,---,0.00,VWS V14.00,2013-07-07 05:30:00,
2013-07-07 00:40:00,84.0,56.4,29.92,South,177,2.7,5.4,39,0.00,,---,0.00,VWS V14.00,2013-07-07 05:40:00,
2013-07-07 00:50:00,83.8,57.0,29.92,South,176,0.0,4.9,40,0.00,,---,0.00,VWS V14.00,2013-07-07 05:50:00,
2013-07-07 01:00:00,83.3,56.5,29.92,SSW,203,2.7,4.9,40,0.00,,---,0.00,VWS V14.00,2013-07-07 06:00:00,
2013-07-07 01:10:00,83.1,57.0,29.92,SSW,205,0.0,4.0,41,0.00,,---,0.00,VWS V14.00,2013-07-07 06:10:00,
2013-07-07 01:20:00,82.8,56.7,29.92,SSW,206,0.0,4.5,41,0.00,,---,0.00,VWS V14.00,2013-07-07 06:20:00,
2013-07-07 01:30:00,82.4,56.4,29.92,SSE,158,0.0,4.0,41,0.00,,---,0.00,VWS V14.00,2013-07-07 06:30:00,
2013-07-07 01:40:00,82.2,56.9,29.92,SSE,160,0.0,4.0,42,0.00,,---,0.00,VWS V14.00,2013-07-07 06:40:00,
2013-07-07 01:50:00,81.9,56.5,29.92,SSE,164,0.0,4.0,42,0.00,,---,0.00,VWS V14.00,2013-07-07 06:50:00,
2013-07-07 02:00:00,81.5,56.9,29.92,SSE,159,2.7,4.0,43,0.00,,---,0.00,VWS V14.00,2013-07-07 07:00:00,
2013-07-07 02:10:00,81.3,57.3,29.92,SE,134,0.0,3.6,44,0.00,,---,0.00,VWS V14.00,2013-07-07 07:10:00,
2013-07-07 02:20:00,81.0,57.0,29.92,South,173,0.0,4.5,44,0.00,,---,0.00,VWS V14.00,2013-07-07 07:20:00,
2013-07-07 02:30:00,80.8,57.5,29.92,South,185,0.0,3.6,45,0.00,,---,0.00,VWS V14.00,2013-07-07 07:30:00,
2013-07-07 02:40:00,80.4,57.8,29.92,SSW,207,0.0,5.4,46,0.00,,---,0.00,VWS V14.00,2013-07-07 07:40:00,
2013-07-07 02:50:00,80.4,58.4,29.92,SE,145,2.7,4.9,47,0.00,,---,0.00,VWS V14.00,2013-07-07 07:50:00,
2013-07-07 03:00:00,80.2,58.2,29.92,ESE,117,0.0,6.3,47,0.00,,---,0.00,VWS V14.00,2013-07-07 08:00:00,
2013-07-07 03:10:00,80.2,58.8,29.92,SSW,203,6.3,7.4,48,0.00,,---,0.00,VWS V14.00,2013-07-07 08:10:00,
2013-07-07 03:20:00,80.4,59.5,29.92,SSE,152,2.7,6.3,49,0.00,,---,0.00,VWS V14.00,2013-07-07 08:20:00,
2013-07-07 03:30:00,80.2,59.4,29.92,ESE,120,3.1,4.5,49,0.00,,---,0.00,VWS V14.00,2013-07-07 08:30:00,
2013-07-07 03:40:00,80.1,59.8,29.92,SE,135,3.6,6.3,50,0.00,,---,0.00,VWS V14.00,2013-07-07 08:40:00,
2013-07-07 03:50:00,79.9,59.6,29.92,South,185,3.6,4.5,50,0.00,,---,0.00,VWS V14.00,2013-07-07 08:50:00,
2013-07-07 04:00:00,79.7,60.0,29.92,ESE,109,0.0,4.9,51,0.00,,---,0.00,VWS V14.00,2013-07-07 09:00:00,
2013-07-07 04:10:00,79.3,60.2,29.92,ESE,122,0.0,5.4,52,0.00,,---,0.00,VWS V14.00,2013-07-07 09:10:00,
2013-07-07 04:20:00,79.2,60.6,29.92,ESE,122,0.0,4.0,53,0.00,,---,0.00,VWS V14.00,2013-07-07 09:20:00,
2013-07-07 04:30:00,79.0,60.9,29.92,SE,129,0.0,4.5,54,0.00,,---,0.00,VWS V14.00,2013-07-07 09:30:00,
2013-07-07 04:40:00,78.8,61.3,29.92,South,173,3.1,5.8,55,0.00,,---,0.00,VWS V14.00,2013-07-07 09:40:00,
2013-07-07 04:50:00,78.8,61.3,29.92,South,181,0.0,5.8,55,0.00,,---,0.00,VWS V14.00,2013-07-07 09:50:00,
2013-07-07 05:00:00,78.6,61.6,29.92,SSE,168,3.1,4.0,56,0.00,,---,0.00,VWS V14.00,2013-07-07 10:00:00,
2013-07-07 05:10:00,78.4,62.0,29.92,SSE,165,0.0,4.0,57,0.00,,---,0.00,VWS V14.00,2013-07-07 10:10:00,
2013-07-07 05:20:00,78.3,61.8,29.92,SSW,201,3.6,4.5,57,0.00,,---,0.00,VWS V14.00,2013-07-07 10:20:00,
2013-07-07 05:30:00,78.1,62.1,29.92,SSE,164,0.0,4.5,58,0.00,,---,0.00,VWS V14.00,2013-07-07 10:30:00,
2013-07-07 05:40:00,77.9,62.4,29.92,SSE,166,0.0,3.6,59,0.00,,---,0.00,VWS V14.00,2013-07-07 10:40:00,
2013-07-07 05:50:00,77.7,62.7,29.92,SSE,163,0.0,4.0,60,0.00,,---,0.00,VWS V14.00,2013-07-07 10:50:00,
2013-07-07 06:00:00,77.5,63.0,29.92,SSE,163,0.0,2.7,61,0.00,,---,0.00,VWS V14.00,2013-07-07 11:00:00,
2013-07-07 06:10:00,77.5,63.5,29.92,SSE,162,0.0,4.0,62,0.00,,---,0.00,VWS V14.00,2013-07-07 11:10:00,
2013-07-07 06:20:00,77.4,63.3,29.92,SSE,165,0.0,3.6,62,0.00,,---,0.00,VWS V14.00,2013-07-07 11:20:00,
2013-07-07 06:30:00,77.2,63.6,29.92,SSE,159,2.7,3.6,63,0.00,,---,0.00,VWS V14.00,2013-07-07 11:30:00,
2013-07-07 06:40:00,77.0,63.9,29.95,SSE,159,0.0,2.7,64,0.00,,---,0.00,VWS V14.00,2013-07-07 11:40:00,
2013-07-07 06:50:00,76.6,63.6,29.95,SSE,162,0.0,0.0,64,0.00,,---,0.00,VWS V14.00,2013-07-07 11:50:00,
2013-07-07 07:00:00,76.6,64.0,29.95,South,175,0.0,3.6,65,0.00,,---,0.00,VWS V14.00,2013-07-07 12:00:00,
2013-07-07 07:10:00,76.8,64.6,29.95,ESE,109,3.1,4.0,66,0.00,,---,0.00,VWS V14.00,2013-07-07 12:10:00,
2013-07-07 07:20:00,77.0,65.2,29.95,ESE,120,0.0,3.1,67,0.00,,---,0.00,VWS V14.00,2013-07-07 12:20:00,
2013-07-07 07:30:00,77.4,65.6,29.95,ESE,120,0.0,3.6,67,0.00,,---,0.00,VWS V14.00,2013-07-07 12:30:00,
2013-07-07 07:40:00,77.7,65.9,29.95,SSE,152,0.0,4.9,67,0.00,,---,0.00,VWS V14.00,2013-07-07 12:40:00,
2013-07-07 07:50:00,78.3,66.4,29.95,SE,138,0.0,4.0,67,0.00,,---,0.00,VWS V14.00,2013-07-07 12:50:00,
2013-07-07 08:00:00,78.6,66.8,29.98,SSE,155,4.0,4.0,67,0.00,,---,0.00,VWS V14.00,2013-07-07 13:00:00,
2013-07-07 08:10:00,79.0,67.1,29.95,East,87,0.0,5.8,67,0.00,,---,0.00,VWS V14.00,2013-07-07 13:10:00,
2013-07-07 08:20:00,79.5,67.6,29.95,SSE,149,0.0,4.0,67,0.00,,---,0.00,VWS V14.00,2013-07-07 13:20:00,
2013-07-07 08:30:00,80.2,68.3,29.98,SE,144,0.0,3.6,67,0.00,,---,0.00,VWS V14.00,2013-07-07 13:30:00,
2013-07-07 08:40:00,80.6,68.2,29.98,SSE,147,0.0,4.0,66,0.00,,---,0.00,VWS V14.00,2013-07-07 13:40:00,
2013-07-07 08:50:00,81.3,68.9,29.98,SSE,148,0.0,4.0,66,0.00,,---,0.00,VWS V14.00,2013-07-07 13:50:00,
2013-07-07 09:00:00,82.0,69.1,29.98,SE,146,0.0,2.7,65,0.00,,---,0.00,VWS V14.00,2013-07-07 14:00:00,
2013-07-07 09:10:00,82.6,69.2,29.98,SE,142,0.0,3.6,64,0.00,,---,0.00,VWS V14.00,2013-07-07 14:10:00,
2013-07-07 09:20:00,83.5,70.0,29.98,SE,143,0.0,0.0,64,0.00,,---,0.00,VWS V14.00,2013-07-07 14:20:00,
2013-07-07 09:30:00,83.8,69.9,29.98,SE,143,0.0,3.1,63,0.00,,---,0.00,VWS V14.00,2013-07-07 14:30:00,
2013-07-07 09:40:00,84.4,69.9,29.98,SE,144,0.0,4.0,62,0.00,,---,0.00,VWS V14.00,2013-07-07 14:40:00,
2013-07-07 09:50:00,85.1,70.2,29.98,SE,139,0.0,4.5,61,0.00,,---,0.00,VWS V14.00,2013-07-07 14:50:00,
2013-07-07 10:00:00,85.6,70.2,29.98,WSW,243,0.0,4.9,60,0.00,,---,0.00,VWS V14.00,2013-07-07 15:00:00,
2013-07-07 10:10:00,86.0,70.0,29.98,WSW,240,0.0,3.1,59,0.00,,---,0.00,VWS V14.00,2013-07-07 15:10:00,
2013-07-07 10:20:00,86.9,70.4,29.98,SE,135,2.7,5.8,58,0.00,,---,0.00,VWS V14.00,2013-07-07 15:20:00,
2013-07-07 10:30:00,87.4,70.3,29.98,SSW,196,0.0,6.7,57,0.00,,---,0.00,VWS V14.00,2013-07-07 15:30:00,
2013-07-07 10:40:00,88.0,69.8,29.98,South,171,0.0,5.8,55,0.00,,---,0.00,VWS V14.00,2013-07-07 15:40:00,
2013-07-07 10:50:00,88.7,69.4,29.98,South,169,4.5,6.9,53,0.00,,---,0.00,VWS V14.00,2013-07-07 15:50:00,
2013-07-07 11:00:00,89.1,68.6,29.98,SE,132,0.0,4.9,51,0.00,,---,0.00,VWS V14.00,2013-07-07 16:00:00,
2013-07-07 11:10:00,89.6,69.1,29.98,SE,140,2.7,4.5,51,0.00,,---,0.00,VWS V14.00,2013-07-07 16:10:00,
2013-07-07 11:20:00,90.1,68.4,29.98,South,172,0.0,4.5,49,0.00,,---,0.00,VWS V14.00,2013-07-07 16:20:00,
2013-07-07 11:30:00,90.7,67.7,29.98,South,174,4.9,4.9,47,0.00,,---,0.00,VWS V14.00,2013-07-07 16:30:00,
2013-07-07 11:40:00,91.2,66.9,29.98,South,181,3.6,6.7,45,0.00,,---,0.00,VWS V14.00,2013-07-07 16:40:00,
2013-07-07 11:50:00,91.8,66.8,29.98,South,170,4.5,5.8,44,0.00,,---,0.00,VWS V14.00,2013-07-07 16:50:00,
2013-07-07 12:00:00,92.5,66.8,29.98,SE,130,3.1,6.3,43,0.00,,---,0.00,VWS V14.00,2013-07-07 17:00:00,
2013-07-07 12:10:00,92.3,65.2,29.98,East,91,3.6,6.9,41,0.00,,---,0.00,VWS V14.00,2013-07-07 17:10:00,
2013-07-07 12:20:00,85.5,64.1,29.98,ENE,62,0.0,6.3,49,0.00,,---,0.00,VWS V14.00,2013-07-07 17:20:00,
2013-07-07 12:30:00,81.7,66.0,29.98,SSE,168,2.7,5.8,59,0.00,,---,0.00,VWS V14.00,2013-07-07 17:30:00,
2013-07-07 12:40:00,78.6,65.9,29.98,ENE,62,0.0,5.8,65,0.00,,---,0.00,VWS V14.00,2013-07-07 17:40:00,
2013-07-07 12:50:00,77.4,66.0,29.98,South,180,0.0,6.3,68,0.00,,---,0.00,VWS V14.00,2013-07-07 17:50:00,
2013-07-07 13:00:00,77.4,66.8,29.98,SSW,192,2.7,5.4,70,0.00,,---,0.00,VWS V14.00,2013-07-07 18:00:00,
2013-07-07 13:10:00,78.6,68.8,29.95,ESE,114,0.0,6.7,72,0.00,,---,0.00,VWS V14.00,2013-07-07 18:10:00,
2013-07-07 13:20:00,77.2,68.7,29.95,NNE,19,0.0,7.4,75,0.00,,---,0.00,VWS V14.00,2013-07-07 18:20:00,
2013-07-07 13:30:00,79.7,70.7,29.95,NE,55,0.0,5.8,74,0.00,,---,0.00,VWS V14.00,2013-07-07 18:30:00,
2013-07-07 13:40:00,78.1,69.1,29.95,South,173,0.0,5.8,74,0.00,,---,0.00,VWS V14.00,2013-07-07 18:40:00,
2013-07-07 13:50:00,82.9,71.3,29.95,SSW,208,2.7,6.3,68,0.00,,---,0.00,VWS V14.00,2013-07-07 18:50:00,
2013-07-07 14:00:00,85.8,72.7,29.95,ESE,102,3.1,6.9,65,0.00,,---,0.00,VWS V14.00,2013-07-07 19:00:00,
2013-07-07 14:10:00,88.7,73.0,29.95,East,86,2.7,6.3,60,0.00,,---,0.00,VWS V14.00,2013-07-07 19:10:00,
2013-07-07 14:20:00,90.1,71.3,29.95,ESE,104,3.6,6.9,54,0.00,,---,0.00,VWS V14.00,2013-07-07 19:20:00,
2013-07-07 14:30:00,92.5,69.9,29.95,ENE,66,4.5,7.4,48,0.00,,---,0.00,VWS V14.00,2013-07-07 19:30:00,
2013-07-07 14:40:00,93.6,69.0,29.95,South,176,2.7,5.4,45,0.00,,---,0.00,VWS V14.00,2013-07-07 19:40:00,
2013-07-07 14:50:00,93.4,65.5,29.95,SSE,165,3.6,8.3,40,0.00,,---,0.00,VWS V14.00,2013-07-07 19:50:00,
2013-07-07 15:00:00,94.5,64.9,29.95,SW,224,0.0,6.7,38,0.00,,---,0.00,VWS V14.00,2013-07-07 20:00:00,
2013-07-07 15:10:00,95.4,65.0,29.92,SSW,192,2.7,5.8,37,0.00,,---,0.00,VWS V14.00,2013-07-07 20:10:00,
2013-07-07 15:20:00,96.3,62.5,29.92,South,172,3.6,6.9,33,0.00,,---,0.00,VWS V14.00,2013-07-07 20:20:00,
2013-07-07 15:30:00,96.6,62.0,29.92,SSE,156,4.0,5.8,32,0.00,,---,0.00,VWS V14.00,2013-07-07 20:30:00,
2013-07-07 15:40:00,97.3,61.7,29.92,SE,132,3.1,6.7,31,0.00,,---,0.00,VWS V14.00,2013-07-07 20:40:00,
2013-07-07 15:50:00,97.3,60.7,29.92,NE,41,4.5,7.4,30,0.00,,---,0.00,VWS V14.00,2013-07-07 20:50:00,
2013-07-07 16:00:00,97.5,60.0,29.92,SE,131,2.7,5.8,29,0.00,,---,0.00,VWS V14.00,2013-07-07 21:00:00,
2013-07-07 16:10:00,97.9,59.3,29.92,South,182,0.0,6.7,28,0.00,,---,0.00,VWS V14.00,2013-07-07 21:10:00,
2013-07-07 16:20:00,98.1,59.4,29.92,SSW,210,0.0,6.3,28,0.00,,---,0.00,VWS V14.00,2013-07-07 21:20:00,
2013-07-07 16:30:00,98.2,58.6,29.92,South,184,3.1,7.4,27,0.00,,---,0.00,VWS V14.00,2013-07-07 21:30:00,
2013-07-07 16:40:00,98.4,58.7,29.92,South,171,2.7,6.7,27,0.00,,---,0.00,VWS V14.00,2013-07-07 21:40:00,
2013-07-07 16:50:00,98.1,58.4,29.92,NE,49,3.1,5.8,27,0.00,,---,0.00,VWS V14.00,2013-07-07 21:50:00,
2013-07-07 17:00:00,97.5,59.0,29.89,SE,128,4.0,7.4,28,0.00,,---,0.00,VWS V14.00,2013-07-07 22:00:00,
2013-07-07 17:10:00,97.7,60.1,29.89,ESE,121,4.5,6.3,29,0.00,,---,0.00,VWS V14.00,2013-07-07 22:10:00,
2013-07-07 17:20:00,96.4,59.0,29.89,South,185,3.1,6.9,29,0.00,,---,0.00,VWS V14.00,2013-07-07 22:20:00,
2013-07-07 17:30:00,96.6,59.2,29.89,South,183,4.9,5.4,29,0.00,,---,0.00,VWS V14.00,2013-07-07 22:30:00,
2013-07-07 17:40:00,96.4,59.0,29.89,SE,143,0.0,6.9,29,0.00,,---,0.00,VWS V14.00,2013-07-07 22:40:00,
2013-07-07 17:50:00,96.3,58.9,29.89,East,82,3.6,6.3,29,0.00,,---,0.00,VWS V14.00,2013-07-07 22:50:00,
2013-07-07 18:00:00,95.9,58.6,29.89,ENE,70,2.7,5.8,29,0.00,,---,0.00,VWS V14.00,2013-07-07 23:00:00,
2013-07-07 18:10:00,95.5,58.2,29.89,East,87,3.1,4.9,29,0.00,,---,0.00,VWS V14.00,2013-07-07 23:10:00,
2013-07-07 18:20:00,95.4,58.1,29.89,East,98,3.1,6.3,29,0.00,,---,0.00,VWS V14.00,2013-07-07 23:20:00,
2013-07-07 18:30:00,95.0,58.7,29.89,SSW,195,2.7,7.8,30,0.00,,---,0.00,VWS V14.00,2013-07-07 23:30:00,
2013-07-07 18:40:00,94.6,58.4,29.89,South,191,2.7,4.9,30,0.00,,---,0.00,VWS V14.00,2013-07-07 23:40:00,
2013-07-07 18:50:00,94.6,58.4,29.89,SE,129,0.0,4.9,30,0.00,,---,0.00,VWS V14.00,2013-07-07 23:50:00,
2013-07-07 19:00:00,94.5,58.3,29.89,East,95,3.1,5.8,30,0.00,,---,0.00,VWS V14.00,2013-07-08 00:00:00,
2013-07-07 19:10:00,94.3,59.0,29.89,SSE,153,2.7,6.3,31,0.00,,---,0.00,VWS V14.00,2013-07-08 00:10:00,
2013-07-07 19:20:00,93.9,58.7,29.89,SSE,167,2.7,5.4,31,0.00,,---,0.00,VWS V14.00,2013-07-08 00:20:00,
2013-07-07 19:30:00,93.7,58.6,29.89,ESE,122,0.0,6.7,31,0.00,,---,0.00,VWS V14.00,2013-07-08 00:30:00,
2013-07-07 19:40:00,93.6,58.4,29.89,ENE,68,0.0,5.8,31,0.00,,---,0.00,VWS V14.00,2013-07-08 00:40:00,
2013-07-07 19:50:00,93.4,58.2,29.89,ESE,123,3.1,4.9,31,0.00,,---,0.00,VWS V14.00,2013-07-08 00:50:00,
2013-07-07 20:00:00,93.0,58.8,29.89,ESE,119,3.6,4.5,32,0.00,,---,0.00,VWS V14.00,2013-07-08 01:00:00,
2013-07-07 20:10:00,92.7,58.5,29.89,ESE,105,0.0,4.9,32,0.00,,---,0.00,VWS V14.00,2013-07-08 01:10:00,
2013-07-07 20:20:00,92.5,59.2,29.89,NE,41,3.6,6.7,33,0.00,,---,0.00,VWS V14.00,2013-07-08 01:20:00,
2013-07-07 20:30:00,92.1,59.7,29.89,South,177,0.0,6.7,34,0.00,,---,0.00,VWS V14.00,2013-07-08 01:30:00,
2013-07-07 20:40:00,91.8,60.2,29.89,SSE,160,0.0,3.6,35,0.00,,---,0.00,VWS V14.00,2013-07-08 01:40:00,
2013-07-07 20:50:00,91.2,59.8,29.89,SSW,207,0.0,4.0,35,0.00,,---,0.00,VWS V14.00,2013-07-08 01:50:00,
2013-07-07 21:00:00,90.9,60.2,29.89,SSW,204,0.0,3.1,36,0.00,,---,0.00,VWS V14.00,2013-07-08 02:00:00,
2013-07-07 21:10:00,90.5,60.7,29.92,SSW,204,2.7,4.0,37,0.00,,---,0.00,VWS V14.00,2013-07-08 02:10:00,
2013-07-07 21:20:00,90.1,61.1,29.92,SSW,211,0.0,3.1,38,0.00,,---,0.00,VWS V14.00,2013-07-08 02:20:00,
2013-07-07 21:30:00,89.8,60.8,29.92,SSE,158,0.0,3.1,38,0.00,,---,0.00,VWS V14.00,2013-07-08 02:30:00,
2013-07-07 21:40:00,89.4,61.2,29.92,SSE,159,0.0,3.6,39,0.00,,---,0.00,VWS V14.00,2013-07-08 02:40:00,
2013-07-07 21:50:00,89.6,62.1,29.92,SW,219,3.1,7.4,40,0.00,,---,0.00,VWS V14.00,2013-07-08 02:50:00,
2013-07-07 22:00:00,89.6,62.8,29.92,SE,142,2.7,6.7,41,0.00,,---,0.00,VWS V14.00,2013-07-08 03:00:00,
2013-07-07 22:10:00,89.2,63.8,29.92,SSW,209,2.7,5.8,43,0.00,,---,0.00,VWS V14.00,2013-07-08 03:10:00,
2013-07-07 22:20:00,88.9,64.2,29.92,SSW,204,0.0,5.4,44,0.00,,---,0.00,VWS V14.00,2013-07-08 03:20:00,
2013-07-07 22:30:00,88.5,64.5,29.95,South,188,3.1,3.6,45,0.00,,---,0.00,VWS V14.00,2013-07-08 03:30:00,
2013-07-07 22:40:00,88.3,64.9,29.95,ESE,120,3.6,4.9,46,0.00,,---,0.00,VWS V14.00,2013-07-08 03:40:00,
2013-07-07 22:50:00,88.2,65.4,29.95,SE,140,3.6,6.3,47,0.00,,---,0.00,VWS V14.00,2013-07-08 03:50:00,
2013-07-07 23:00:00,87.8,65.7,29.95,SE,143,0.0,5.8,48,0.00,,---,0.00,VWS V14.00,2013-07-08 04:00:00,
2013-07-07 23:10:00,87.6,66.1,29.95,SSE,160,3.6,5.4,49,0.00,,---,0.00,VWS V14.00,2013-07-08 04:10:00,
2013-07-07 23:20:00,87.3,66.4,29.95,ESE,123,3.6,4.5,50,0.00,,---,0.00,VWS V14.00,2013-07-08 04:20:00,
2013-07-07 23:30:00,87.1,66.8,29.95,SSW,200,2.7,5.8,51,0.00,,---,0.00,VWS V14.00,2013-07-08 04:30:00,
2013-07-07 23:40:00,86.9,67.2,29.95,SSW,197,2.7,5.4,52,0.00,,---,0.00,VWS V14.00,2013-07-08 04:40:00,
2013-07-07 23:50:00,86.5,67.4,29.95,South,181,0.0,5.4,53,0.00,,---,0.00,VWS V14.00,2013-07-08 04:50:00,